Home   Weather   Eisenach   Past weeks

Flag for Germany Past Weather in Eisenach, Thuringia, Germany — Yesterday and Last 2 Weeks

Now
23 °F

Light freezing rain. Ice fog.


Feels Like: 18 °F
Forecast: 19 / 28 °F
Wind: 3 mph from Southwest

Location: Erfurt-Bindersleben

Current Time: Jan 24, 2017 at 6:11:01 am

Latest Report: Jan 24, 2017 at 5:50 am


Visibility: 2 mi

Pressure: 30.24 "Hg

Humidity: 93%

Dew Point: 21 °F

Location of EisenachLocation

Past Weather in Eisenach — Graph

°F

Eisenach Temperature Yesterday

Maximum temperature yesterday: 19 °F (at 10:50 am)
Minimum temperature yesterday: 10 °F (at 12:20 am)
Average temperature yesterday: 16 °F

High & Low Weather Summary for the Past Weeks

 TemperatureHumidityPressure
High39 °F (Jan 12, 11:20 am)100% (Jan 9, 4:20 am)30.69 "Hg (Jan 9, 4:20 am)
Low10 °F (Jan 22, 11:50 pm)59% (Jan 20, 2:50 pm)29.00 "Hg (Jan 13, 3:50 am)
Average26 °F87%30.13 "Hg
* Reported Jan 9 4:20 am — Jan 24 4:50 am, Eisenach, Weather by CustomWeather, © 2017

Note: Actual official high and low records may vary slightly from our data, if they occured in-between our weather recording intervals... More about our weather records

Advertising

Eisenach Weather History for the Previous 24 Hours

Scroll right to see more
 ConditionsComfort  
Time TempWeatherWind HumidityBarometerVisibility
4:50 am
Tue, Jan 24
21 °FLight freezing rain. Ice fog.3 mph100%30.24 "Hg2 mi
4:20 am21 °FLight freezing rain. Ice fog.5 mph100%30.24 "Hg2 mi
3:50 am21 °FLight freezing rain. Ice fog.3 mph100%30.24 "Hg1 mi
3:20 am21 °FLight freezing rain. Ice fog.3 mph100%30.24 "Hg1 mi
2:50 am21 °FLight freezing rain. Ice fog.5 mph93%30.24 "Hg1 mi
2:20 am19 °FLight freezing rain. Ice fog.5 mph100%30.24 "Hg1 mi
1:50 am19 °FLight freezing rain. Ice fog.6 mph100%30.24 "Hg1 mi
1:20 am19 °FLight freezing rain. Ice fog.7 mph100%30.24 "Hg1 mi
12:50 am19 °FLight freezing rain. Ice fog.7 mph93%30.24 "Hg1 mi
12:20 am19 °FLight freezing rain. Ice fog.7 mph93%30.27 "Hg1 mi
11:50 pm
Mon, Jan 23
19 °FLight freezing rain. Ice fog.8 mph93%30.27 "Hg1 mi
11:20 pm19 °FLight freezing rain. Ice fog.7 mph93%30.27 "Hg1 mi
10:50 pm19 °FLight freezing rain. Ice fog.7 mph93%30.27 "Hg1 mi
10:20 pm19 °FLight freezing rain. Ice fog.5 mph93%30.27 "Hg2 mi
9:50 pm19 °FIce fog.1 mph93%30.27 "Hg2 mi
9:20 pm19 °FIce fog.1 mph93%30.27 "Hg2 mi
8:50 pm18 °FIce fog.2 mph100%30.24 "Hg2 mi
8:20 pm19 °FIce fog.3 mph93%30.24 "Hg2 mi
7:50 pm19 °FIce fog.2 mph93%30.24 "Hg2 mi
7:20 pm19 °FIce fog.3 mph93%30.24 "Hg2 mi
6:50 pm19 °FIce fog.5 mph93%30.24 "Hg2 mi
6:20 pm19 °FIce fog.3 mph93%30.24 "Hg2 mi
5:50 pm19 °FIce fog.3 mph93%30.24 "Hg2 mi
5:20 pm19 °FIce fog.3 mph93%30.24 "Hg2 mi
4:50 pm18 °FIce fog.5 mph100%30.24 "Hg2 mi
4:20 pm19 °FIce fog.5 mph93%30.24 "Hg2 mi
3:50 pm19 °FIce fog.5 mph93%30.24 "Hg1 mi
3:20 pm19 °FIce fog.5 mph93%30.21 "Hg1 mi
2:50 pm19 °FIce fog.5 mph100%30.21 "Hg1 mi
2:20 pm19 °FIce fog.5 mph100%30.21 "Hg1 mi
1:50 pm19 °FIce fog.3 mph100%30.21 "Hg1 mi
1:20 pm19 °FIce fog.2 mph100%30.21 "Hg1 mi
12:50 pm19 °FIce fog.5 mph93%30.24 "Hg1 mi
12:20 pm19 °FIce fog.3 mph93%30.24 "Hg3 mi
11:50 am19 °FClear.3 mph93%30.24 "Hg4 mi
11:20 am19 °FClear.5 mph93%30.24 "Hg5 mi
10:50 am19 °FClear.5 mph86%30.24 "Hg5 mi
10:20 am18 °FClear.6 mph86%30.24 "Hg5 mi
9:50 am16 °FClear.6 mph86%30.24 "Hg4 mi
9:20 am14 °FClear.7 mph92%30.24 "Hg4 mi
8:50 am12 °FClear.6 mph92%30.24 "Hg4 mi
8:20 am12 °FClear.6 mph92%30.21 "Hg4 mi
7:50 am12 °FClear.6 mph92%30.21 "Hg4 mi
7:20 am12 °FClear.6 mph92%30.21 "Hg5 mi
6:50 am12 °FClear.7 mph92%30.21 "Hg5 mi
6:20 am10 °FClear.6 mph92%30.21 "Hg5 mi
Weather by CustomWeather, © 2017

See weather overviewHow to use our weather pages